Location: Summit Observatory
(39.5293°N, 75.7290°W)
Time: 21:39:34
(UTC-04:00)

Amateur Radio Satellites - All Passes

Search period start: 22 July 2014 21:09
Search period end: 23 July 2014 21:09
Location: Summit Observatory, 39.5293°N, 75.7290°W

Satellite Date Start Highest point End Downlink Frequencies (MHz)
Time Altitude Azimuth
HO-68 22 Jul 21:32:48 21:39:57 73° 256° (WSW) 21:47:09 435.675 MHz FM
SO-50 22 Jul 21:40:13 21:41:34 11° 37° (NE) 21:42:55 436.795 FM
AO-40 22 Jul 21:45:10 04:04:16 39° 184° (S) 09:32:04 Beacon 2401.320
RS-15 22 Jul 21:48:32 21:57:36 28° 32° (NNE) 22:06:48 29.354 - 29.394 USB, Beacon 29.352 USB
Oscar 11 22 Jul 22:23:31 22:27:43 53° 260° (W) 22:31:57 145.825 FM, Beacon 2401.500 USB
FUNcube-1 22 Jul 22:25:24 22:29:43 55° 74° (ENE) 22:33:57 145.950 - 145.970 MHz USB
MaSat-1 22 Jul 22:25:34 22:28:44 26° 104° (ESE) 22:32:21 437.345 MHz
SO-50 22 Jul 23:18:18 23:23:02 65° 56° (ENE) 23:27:49 436.795 FM
HO-68 22 Jul 23:27:29 23:28:45 11° 273° (W) 23:30:01 435.675 MHz FM
Lituanica SAT-1 22 Jul 23:58:44 23:59:58 14° 133° (SE) 00:01:11 437.275 MHz beacon
RS-15 23 Jul 00:00:44 00:11:50 83° 58° (ENE) 00:23:21 29.354 - 29.394 USB, Beacon 29.352 USB
MaSat-1 23 Jul 00:02:38 00:06:00 26° 306° (NW) 00:09:50 437.345 MHz
FUNcube-1 23 Jul 00:04:36 00:06:24 12° 269° (W) 00:08:12 145.950 - 145.970 MHz USB
UOSAT-12 23 Jul 00:17:56 00:21:41 23° 46° (NE) 00:25:24 437.025 FM, 437.400 FM
PCSat 23 Jul 00:58:51 01:00:08 11° 102° (ESE) 01:01:26 145.825 MHz
SO-50 23 Jul 01:00:35 01:03:04 14° 252° (WSW) 01:05:34 436.795 FM
Oscar 16 23 Jul 01:30:28 01:33:41 17° 92° (E) 01:36:54 437.025 USB, Beacon 2401.1428
Lituanica SAT-1 23 Jul 01:30:52 01:32:44 25° 329° (NNW) 01:34:38 437.275 MHz beacon
AO-27 23 Jul 01:55:38 01:57:37 12° 90° (E) 01:59:35 436.795 MHz FM
UOSAT-12 23 Jul 01:57:32 02:02:04 47° 244° (WSW) 02:06:31 437.025 FM, 437.400 FM
Uribyol 2 23 Jul 01:58:55 02:01:31 14° 91° (E) 02:04:06 436.500 FM
Sapphire 23 Jul 02:03:35 02:08:39 43° 111° (ESE) 02:13:45 437.095 MHz 1200 baud AX-25 AFSK
ISS 23 Jul 02:09:32 02:12:51 69° 140° (SE) 02:16:12 145.800 FM
AO-Echo 23 Jul 02:12:54 02:16:30 19° 92° (E) 02:20:01 ?
RS-15 23 Jul 02:14:40 02:22:56 25° 258° (WSW) 02:31:27 29.354 - 29.394 USB, Beacon 29.352 USB
PCSat 23 Jul 02:37:18 02:42:43 89° 298° (WNW) 02:48:10 145.825 MHz
Oscar 19 23 Jul 02:41:01 02:46:12 78° 103° (ESE) 02:51:22 437.125 CW, 437.150 USB
TMSAT-1 23 Jul 02:58:44 03:01:39 15° 91° (E) 03:04:32 436.925 FM
Oscar 16 23 Jul 03:08:20 03:13:22 56° 288° (WNW) 03:18:23 437.025 USB, Beacon 2401.1428
ITAMSAT 1 23 Jul 03:15:02 03:20:14 74° 103° (ESE) 03:25:23 435.822 SSB
Gurwin Techsat 1B 23 Jul 03:17:18 03:22:00 32° 96° (E) 03:26:41 435.225 FM
JAS-1B 23 Jul 03:22:32 03:31:59 55° 98° (E) 03:40:12 435.800 - 435.900 CW/SSB
AO-27 23 Jul 03:32:28 03:37:39 75° 286° (WNW) 03:42:49 436.795 MHz FM
OPAL 23 Jul 03:35:39 03:40:19 43° 69° (ENE) 03:44:59 ?
Uribyol 2 23 Jul 03:36:18 03:41:26 66° 287° (WNW) 03:46:31 436.500 FM
ISS 23 Jul 03:47:18 03:49:53 20° 337° (NNW) 03:52:28 145.800 FM
Sapphire 23 Jul 03:47:38 03:52:13 28° 309° (NW) 03:56:50 437.095 MHz 1200 baud AX-25 AFSK
AO-Echo 23 Jul 03:50:35 03:55:32 47° 289° (WNW) 04:00:19 ?
Uosat F 23 Jul 04:04:56 04:07:16 13° 91° (E) 04:09:35 435.120 FM
Oscar 19 23 Jul 04:22:31 04:24:51 13° 299° (WNW) 04:27:12 437.125 CW, 437.150 USB
PCSat 23 Jul 04:23:48 04:26:54 15° 317° (NW) 04:30:02 145.825 MHz
TMSAT-1 23 Jul 04:36:45 04:42:00 65° 287° (WNW) 04:47:13 436.925 FM
ITAMSAT 1 23 Jul 04:56:29 04:59:04 14° 299° (WNW) 05:01:38 435.822 SSB
Gurwin Techsat 1B 23 Jul 04:57:16 05:01:54 31° 292° (WNW) 05:06:30 435.225 FM
AO-7 23 Jul 05:05:36 05:13:41 51° 101° (ESE) 05:21:39 29.400 - 29.500 MHz
JAS-1B 23 Jul 05:13:22 05:21:59 38° 299° (WNW) 05:29:46 435.800 - 435.900 CW/SSB
OPAL 23 Jul 05:15:45 05:19:22 20° 264° (W) 05:23:01 ?
ISS 23 Jul 05:26:50 05:27:39 11° 358° (N) 05:28:28 145.800 FM
Uosat F 23 Jul 05:41:30 05:46:30 66° 287° (WNW) 05:51:27 435.120 FM
STRAND 1 23 Jul 05:49:12 05:52:45 19° 64° (ENE) 05:56:18 ?
KITSAT 1 23 Jul 05:51:21 05:53:38 11° 98° (E) 05:55:54 435.175 FM
Hamsat 23 Jul 05:59:51 06:02:06 14° 92° (E) 06:04:22 145.90 MHz
Lituanica SAT-1 23 Jul 06:12:43 06:14:02 14° 26° (NNE) 06:15:20 437.275 MHz beacon
MaSat-1 23 Jul 06:46:30 06:47:35 11° 44° (NE) 06:48:41 437.345 MHz
AO-7 23 Jul 06:58:48 07:06:10 37° 300° (WNW) 07:13:31 29.400 - 29.500 MHz
ISS 23 Jul 07:03:20 07:05:31 16° 18° (NNE) 07:07:42 145.800 FM
JAS-2 23 Jul 07:16:23 07:22:38 66° 101° (E) 07:28:08 435.800 - 435.900 CW/SSB, 435.910 FM
STRAND 1 23 Jul 07:26:30 07:31:31 52° 260° (W) 07:36:33 ?
Hamsat 23 Jul 07:34:12 07:38:18 47° 286° (WNW) 07:42:26 145.90 MHz
KITSAT 1 23 Jul 07:39:32 07:47:33 70° 115° (ESE) 07:55:36 435.175 FM
SO-67 23 Jul 07:44:17 07:47:23 30° 97° (E) 07:50:28 435.3500 MHz FM
Lituanica SAT-1 23 Jul 07:44:59 07:47:03 35° 222° (SW) 07:49:06 437.275 MHz beacon
MaSat-1 23 Jul 08:20:45 08:26:03 62° 62° (ENE) 08:31:08 437.345 MHz
PANSAT 23 Jul 08:21:57 08:23:36 12° 169° (SSE) 08:25:14 not established
Saudisat 1A 23 Jul 08:32:28 08:35:38 20° 111° (ESE) 08:38:48 436.775 MHz
ISS 23 Jul 08:39:23 08:42:45 70° 37° (NE) 08:46:06 145.800 FM
Oscar 10/S400 23 Jul 09:01:43 09:44:22 13° 264° (W) 10:46:04 145.825 - 145.975 CW/USB, Beacon 145.810 USB
HO-68 23 Jul 09:02:36 09:08:00 23° 93° (E) 09:13:21 435.675 MHz FM
JAS-2 23 Jul 09:02:48 09:06:56 19° 301° (WNW) 09:10:48 435.800 - 435.900 CW/SSB, 435.910 FM
SO-67 23 Jul 09:18:15 09:20:11 14° 292° (WNW) 09:22:08 435.3500 MHz FM
KITSAT 1 23 Jul 09:36:41 09:43:36 30° 316° (NW) 09:50:33 435.175 FM
PCSat 23 Jul 09:45:41 09:47:01 11° 38° (NE) 09:48:21 145.825 MHz
MaSat-1 23 Jul 09:59:32 10:02:52 17° 259° (W) 10:06:07 437.345 MHz
PANSAT 23 Jul 10:00:43 10:03:05 16° 182° (S) 10:05:27 not established
Saudisat 1A 23 Jul 10:10:43 10:14:55 42° 307° (NW) 10:19:08 436.775 MHz
Oscar 11 23 Jul 10:12:19 10:16:05 28° 96° (E) 10:19:49 145.825 FM, Beacon 2401.500 USB
ISS 23 Jul 10:17:42 10:19:04 12° 232° (SW) 10:20:25 145.800 FM
FUNcube-1 23 Jul 10:18:20 10:19:05 10° 90° (E) 10:19:49 145.950 - 145.970 MHz USB
HO-68 23 Jul 10:49:06 10:56:10 65° 290° (WNW) 11:03:11 435.675 MHz FM
Sapphire 23 Jul 10:52:28 10:57:14 30° 52° (NE) 11:01:58 437.095 MHz 1200 baud AX-25 AFSK
PCSat 23 Jul 11:26:14 11:31:36 60° 59° (ENE) 11:36:56 145.825 MHz
KITSAT 1 23 Jul 11:41:13 11:42:17 10° 344° (NNW) 11:43:21 435.175 FM
PANSAT 23 Jul 11:41:42 11:42:33 11° 194° (SSW) 11:43:25 not established
Oscar 11 23 Jul 11:48:40 11:52:08 24° 292° (WNW) 11:55:35 145.825 FM, Beacon 2401.500 USB
FUNcube-1 23 Jul 11:51:45 11:55:50 58° 286° (WNW) 11:59:56 145.950 - 145.970 MHz USB
Oscar 19 23 Jul 12:21:27 12:23:32 13° 60° (ENE) 12:25:37 437.125 CW, 437.150 USB
JAS-1B 23 Jul 12:23:50 12:24:32 10° 42° (NE) 12:25:15 435.800 - 435.900 CW/SSB
Sapphire 23 Jul 12:35:43 12:40:42 38° 249° (WSW) 12:45:40 437.095 MHz 1200 baud AX-25 AFSK
HO-68 23 Jul 12:40:03 12:42:29 12° 309° (NW) 12:44:56 435.675 MHz FM
Oscar 16 23 Jul 12:46:31 12:50:28 23° 65° (ENE) 12:54:25 437.025 USB, Beacon 2401.1428
ITAMSAT 1 23 Jul 12:56:15 12:58:33 13° 60° (ENE) 13:00:51 435.822 SSB
PCSat 23 Jul 13:10:57 13:14:30 18° 255° (WSW) 13:18:02 145.825 MHz
AO-27 23 Jul 13:12:17 13:15:52 19° 63° (ENE) 13:19:27 436.795 MHz FM
Uribyol 2 23 Jul 13:15:34 13:19:23 21° 64° (ENE) 13:23:12 436.500 FM
AO-Echo 23 Jul 13:24:32 13:28:43 25° 66° (ENE) 13:32:57 ?
SO-50 23 Jul 13:33:21 13:36:58 25° 112° (ESE) 13:40:39 436.795 FM
KITSAT 1 23 Jul 13:41:05 13:42:30 11° 17° (NNE) 13:43:55 435.175 FM
Oscar 19 23 Jul 13:57:03 14:02:10 81° 257° (WSW) 14:07:18 437.125 CW, 437.150 USB
JAS-1B 23 Jul 14:04:24 14:12:18 44° 63° (ENE) 14:21:12 435.800 - 435.900 CW/SSB
AO-7 23 Jul 14:16:31 14:20:18 14° 47° (NE) 14:24:04 29.400 - 29.500 MHz
TMSAT-1 23 Jul 14:18:19 14:22:21 23° 65° (ENE) 14:26:23 436.925 FM
RS-15 23 Jul 14:22:36 14:33:28 60° 113° (ESE) 14:44:04 29.354 - 29.394 USB, Beacon 29.352 USB
Oscar 16 23 Jul 14:24:44 14:29:33 41° 261° (W) 14:34:24 437.025 USB, Beacon 2401.1428
ITAMSAT 1 23 Jul 14:32:06 14:37:20 81° 256° (WSW) 14:42:35 435.822 SSB
Gurwin Techsat 1B 23 Jul 14:37:25 14:42:27 46° 71° (ENE) 14:47:31 435.225 FM
AO-27 23 Jul 14:49:50 14:54:56 54° 259° (W) 15:00:04 436.795 MHz FM
Uribyol 2 23 Jul 14:53:29 14:58:30 48° 260° (W) 15:03:32 436.500 FM
AO-Echo 23 Jul 15:02:15 15:07:12 42° 262° (W) 15:12:14 ?
SO-50 23 Jul 15:13:16 15:17:21 34° 309° (NW) 15:21:32 436.795 FM
Uosat F 23 Jul 15:17:04 15:20:28 19° 63° (ENE) 15:23:52 435.120 FM
KITSAT 1 23 Jul 15:34:07 15:41:07 31° 45° (NE) 15:48:04 435.175 FM
OPAL 23 Jul 15:48:35 15:50:18 12° 92° (E) 15:52:02 ?
JAS-1B 23 Jul 15:54:40 16:02:36 47° 264° (W) 16:11:44 435.800 - 435.900 CW/SSB
TMSAT-1 23 Jul 15:56:53 16:01:57 45° 261° (W) 16:07:02 436.925 FM
AO-7 23 Jul 16:03:14 16:11:26 63° 67° (ENE) 16:19:39 29.400 - 29.500 MHz
UOSAT-12 23 Jul 16:07:26 16:11:58 66° 119° (ESE) 16:16:37 437.025 FM, 437.400 FM
Gurwin Techsat 1B 23 Jul 16:18:38 16:22:37 21° 267° (W) 16:26:37 435.225 FM
RS-15 23 Jul 16:35:53 16:46:13 43° 316° (NW) 16:56:27 29.354 - 29.394 USB, Beacon 29.352 USB
Uosat F 23 Jul 16:53:55 16:58:49 52° 260° (W) 17:03:46 435.120 FM
Saudisat 1A 23 Jul 16:59:45 17:02:25 16° 42° (NE) 17:05:04 436.775 MHz
OPAL 23 Jul 17:24:38 17:29:40 76° 287° (WNW) 17:34:45 ?
JAS-2 23 Jul 17:25:48 17:32:31 33° 65° (ENE) 17:38:59 435.800 - 435.900 CW/SSB, 435.910 FM
KITSAT 1 23 Jul 17:29:07 17:37:06 67° 245° (WSW) 17:45:02 435.175 FM
UOSAT-12 23 Jul 17:49:27 17:52:34 18° 317° (NW) 17:55:44 437.025 FM, 437.400 FM
AO-7 23 Jul 17:57:47 18:04:39 28° 265° (W) 18:11:34 29.400 - 29.500 MHz
Hamsat 23 Jul 18:26:23 18:30:33 75° 259° (WSW) 18:34:45 145.90 MHz
Saudisat 1A 23 Jul 18:38:05 18:42:28 69° 241° (WSW) 18:46:49 436.775 MHz
Oscar 10/S400 23 Jul 18:55:27 19:09:50 23° 141° (SE) 19:27:06 145.825 - 145.975 CW/USB, Beacon 145.810 USB
RS-15 23 Jul 18:55:36 19:02:40 19° 349° (NNW) 19:09:46 29.354 - 29.394 USB, Beacon 29.352 USB
JAS-2 23 Jul 19:09:28 19:17:08 56° 261° (W) 19:24:36 435.800 - 435.900 CW/SSB, 435.910 FM
KITSAT 1 23 Jul 19:29:43 19:30:57 10° 263° (W) 19:32:11 435.175 FM
HO-68 23 Jul 19:32:04 19:36:21 17° 55° (NE) 19:40:38 435.675 MHz FM
STRAND 1 23 Jul 19:37:58 19:43:00 57° 101° (E) 19:48:00 ?
SO-67 23 Jul 19:49:07 19:52:27 46° 261° (W) 19:55:49 435.3500 MHz FM
